This is the latest recevied weather packets stored in our database for station/object W0VI. If no packets are shown the sender has not sent any weather packets the latest 10 day(s).
| Time | Temp. | Humidity | Pressure | Rain* | Wind** | Luminosity | Snow |
|---|---|---|---|---|---|---|---|
| 1788023877 | 23.33° C | 80% | 1011.6 hPa | 0 mm | - | 177 W/m² | - |
| 1788023572 | 23.33° C | 80% | 1011.7 hPa | 0 mm | - | 239 W/m² | - |
| 1788023267 | 23.33° C | 81% | 1011.5 hPa | 0 mm | - | 339 W/m² | - |
| 1788022962 | 23.33° C | 80% | 1011.4 hPa | 0 mm | - | 314 W/m² | - |
| 1788022659 | 23.33° C | 80% | 1011.9 hPa | 0 mm | - | 374 W/m² | - |
| 1788022354 | 23.33° C | 80% | 1011.7 hPa | 0 mm | - | 599 W/m² | - |
| 1788022053 | 22.78° C | 82% | 1011.7 hPa | 0 mm | - | 799 W/m² | - |
| 1788021747 | 22.78° C | 82% | 1011.9 hPa | 0 mm | - | 304 W/m² | - |
| 1788021446 | 22.78° C | 83% | 1012 hPa | 0 mm | - | 352 W/m² | - |
| 1788021140 | 22.22° C | 83% | 1012 hPa | 0 mm | - | 576 W/m² | - |
| 1788020835 | 22.22° C | 85% | 1012.3 hPa | 0 mm | - | 658 W/m² | - |
| 1788020531 | 21.67° C | 86% | 1012.3 hPa | 0 mm | - | 347 W/m² | - |
| 1788020226 | 21.67° C | 86% | 1012.4 hPa | 0 mm | - | 223 W/m² | - |
| 1788019922 | 21.67° C | 87% | 1012.6 hPa | 0 mm | - | 225 W/m² | - |
| 1788019617 | 21.11° C | 88% | 1012.8 hPa | 0 mm | - | 261 W/m² | - |
| 1788019316 | 21.11° C | 89% | 1012.6 hPa | 0 mm | - | 264 W/m² | - |
| 1788019014 | 21.11° C | 90% | 1012.5 hPa | 0 mm | - | 228 W/m² | - |
| 1788018708 | 21.11° C | 91% | 1013 hPa | 0 mm | - | 198 W/m² | - |
| 1788018407 | 21.11° C | 90% | 1013 hPa | 0 mm | - | 217 W/m² | - |
| 1788018103 | 21.11° C | 91% | 1013.4 hPa | 0 mm | - | 173 W/m² | - |
| 1788017799 | 21.11° C | 91% | 1013.5 hPa | 0 mm | - | 232 W/m² | - |
| 1788017495 | 20.56° C | 92% | 1013.2 hPa | 0 mm | - | 269 W/m² | - |
| 1788017192 | 20.56° C | 94% | 1013.4 hPa | 0 mm | - | 240 W/m² | - |
| 1788016892 | 20.56° C | 95% | 1013.3 hPa | 0 mm | - | 212 W/m² | - |
| 1788016590 | 20.56° C | 96% | 1013.2 hPa | 0 mm | - | 229 W/m² | - |
* Rain latest hour (hover to see other rain measurements)
** Current wind speed in m/s (hover to see current wind gust speed)